| Date | Time | Temp. (oF) | Dew Point (oF) | Rel. Hum. (%) | Press. (in.) | Wind Dir. | Wind Speed (mph) | Hourly Rainfall (in.) |
|
|---|---|---|---|---|---|---|---|---|---|
| 1 | 03/03 | 00:00 | 23 | 15 | 74 | 29.83 | WNW | 16 | 0.00 |
| 2 | 03/02 | 23:00 | 23 | 15 | 74 | 29.82 | W | 13 | 0.00 |
| 3 | 03/02 | 22:00 | 23 | 18 | 82 | 29.82 | WNW | 11 | 0.00 |
| 4 | 03/02 | 21:00 | 23 | 19 | 85 | 29.82 | WNW | 11 | 0.00 |
| 5 | 03/02 | 20:00 | 25 | 18 | 77 | 29.82 | WSW | 5 | 0.00 |
| 6 | 03/02 | 19:00 | 25 | 18 | 75 | 29.81 | WNW | 12 | 0.00 |
| 7 | 03/02 | 18:00 | 25 | 18 | 76 | 29.78 | NW | 17 | 0.00 |
| 8 | 03/02 | 17:00 | 27 | 17 | 68 | 29.76 | WNW | 11 | 0.00 |
| 9 | 03/02 | 16:00 | 29 | 16 | 58 | 29.73 | WNW | 23 | 0.00 |
| 10 | 03/02 | 15:00 | 31 | 16 | 54 | 29.70 | W | 10 | 0.00 |
| 11 | 03/02 | 14:00 | 31 | 17 | 56 | 29.70 | WNW | 12 | 0.00 |
| 12 | 03/02 | 13:00 | 31 | 17 | 56 | 29.70 | W | 12 | 0.00 |
| 13 | 03/02 | 12:00 | 31 | 16 | 55 | 29.71 | W | 7 | 0.00 |
| 14 | 03/02 | 11:00 | 30 | 16 | 57 | 29.71 | WNW | 7 | 0.00 |
| 15 | 03/02 | 10:00 | 28 | 17 | 64 | 29.70 | WNW | 12 | 0.00 |
| 16 | 03/02 | 09:00 | 28 | 17 | 63 | 29.71 | NW | 15 | 0.00 |
| 17 | 03/02 | 08:00 | 27 | 17 | 68 | 29.70 | WSW | 5 | 0.00 |
| 18 | 03/02 | 07:00 | 26 | 17 | 69 | 29.67 | WNW | 11 | 0.00 |
| 19 | 03/02 | 06:00 | 27 | 18 | 70 | 29.65 | W | 12 | 0.00 |
| 20 | 03/02 | 05:00 | 26 | 22 | 88 | 29.62 | WNW | 8 | 0.00 |
| 21 | 03/02 | 04:00 | 28 | 21 | 77 | 29.58 | WNW | 28 | 0.00 |
| 22 | 03/02 | 03:00 | 29 | 22 | 75 | 29.55 | WSW | 9 | 0.00 |
| 23 | 03/02 | 02:00 | 29 | 23 | 78 | 29.53 | WSW | 11 | 0.00 |
| 24 | 03/02 | 01:00 | 29 | 23 | 78 | 29.51 | SW | 5 | 0.00 |